^^

..:: Storico WU ::..




Lo storico viene creato da WUnderground con i dati che la stazione Meteomincio invia al loro server. L' aggiornamento viene fatto ogni 5 minuti circa, tuttavia possono esserci intervalli pił ampi a causa di errori, interruzioni di servizio o problemi nell' invio tramite FTP.


Storico stazione MeteoMincio
Giorno Sommario per Aprile 22, 2022 Unità:  Inglese    Metrico   Entrambi
Giorno Settimana Mese Anno
  Max: Min: Media:
Temperatura: 59 °F 48.2 °F 52.7 °F
Dew Point: 53.6 °F 44.6 °F 49.8 °F
Umidità: 95% 79% 90%
Velocità vento: 12.4mph 0mph 5.2mph
Raffica: 21.7mph - -
Direzione- - SW
Pressione: 29.7 in 29.5 in -
Precipitazioni: 0.29 in    
 
 
Tabulato Dati per Aprile 22, 2022
Ora Temperatura Dew Point Pressione Direzione Velocità vento Raffica Umidità Intensità pioggia (oraria) Info solare Situazione
00:04 50 °F 44.6 °F 29.7 in East 11.2 mph 14.9 mph 79% 0.01 in 0.00 W/m2 unknown
00:09 50 °F 44.6 °F 29.7 in East 9.3 mph 14.9 mph 80% 0.01 in 0.00 W/m2 unknown
00:14 50 °F 44.6 °F 29.7 in East 11.8 mph 14.9 mph 81% 0.01 in 0.00 W/m2 unknown
00:19 50 °F 44.6 °F 29.7 in East 12.4 mph 14.9 mph 82% 0.01 in 0.00 W/m2 unknown
00:24 50 °F 44.6 °F 29.7 in East 10.6 mph 18.6 mph 83% 0.01 in 0.00 W/m2 unknown
00:29 50 °F 44.6 °F 29.7 in East 11.8 mph 18.6 mph 83% 0.01 in 0.00 W/m2 unknown
00:34 50 °F 44.6 °F 29.7 in East 11.8 mph 18 mph 84% 0.01 in 0.00 W/m2 unknown
00:39 50 °F 44.6 °F 29.7 in East 9.3 mph 14.9 mph 85% 0.02 in 0.00 W/m2 unknown
00:44 48.2 °F 44.6 °F 29.7 in East 11.8 mph 19.3 mph 86% 0.02 in 0.00 W/m2 unknown
00:49 48.2 °F 44.6 °F 29.7 in ENE 11.8 mph 19.9 mph 87% 0.02 in 0.00 W/m2 unknown
00:54 48.2 °F 44.6 °F 29.7 in ENE 9.9 mph 19.9 mph 87% 0.02 in 0.00 W/m2 unknown
00:59 48.2 °F 44.6 °F 29.7 in ENE 10.6 mph 14.9 mph 88% 0.02 in 0.00 W/m2 unknown
01:04 48.2 °F 44.6 °F 29.7 in East 9.9 mph 14.9 mph 88% 0.04 in 0.00 W/m2 unknown
01:09 48.2 °F 44.6 °F 29.7 in ENE 10.6 mph 13 mph 88% 0.04 in 0.00 W/m2 unknown
01:14 48.2 °F 44.6 °F 29.7 in ENE 8.1 mph 11.8 mph 89% 0.05 in 0.00 W/m2 unknown
01:19 48.2 °F 44.6 °F 29.7 in NE 9.3 mph 14.9 mph 89% 0.04 in 0.00 W/m2 unknown
01:24 48.2 °F 44.6 °F 29.7 in NE 11.8 mph 16.2 mph 89% 0.05 in 0.00 W/m2 unknown
01:29 48.2 °F 46.4 °F 29.7 in NE 9.9 mph 16.2 mph 90% 0.04 in 0.00 W/m2 unknown
01:34 48.2 °F 46.4 °F 29.7 in NE 9.3 mph 14.3 mph 90% 0.05 in 0.00 W/m2 unknown
01:39 48.2 °F 46.4 °F 29.7 in NE 9.3 mph 14.3 mph 90% 0.05 in 0.00 W/m2 unknown
01:44 48.2 °F 46.4 °F 29.7 in ENE 10.6 mph 16.2 mph 90% 0.04 in 0.00 W/m2 unknown
01:49 48.2 °F 46.4 °F 29.7 in ENE 12.4 mph 16.2 mph 90% 0.05 in 0.00 W/m2 unknown
01:54 48.2 °F 46.4 °F 29.7 in ENE 9.3 mph 16.2 mph 90% 0.04 in 0.00 W/m2 unknown
01:59 48.2 °F 46.4 °F 29.6 in ENE 9.9 mph 13 mph 91% 0.03 in 0.00 W/m2 unknown
02:04 48.2 °F 46.4 °F 29.6 in ENE 9.9 mph 13 mph 91% 0.04 in 0.00 W/m2 unknown
02:09 48.2 °F 46.4 °F 29.6 in ENE 11.2 mph 14.9 mph 91% 0.04 in 0.00 W/m2 unknown
02:14 48.2 °F 46.4 °F 29.6 in ENE 11.8 mph 16.2 mph 91% 0.04 in 0.00 W/m2 unknown
02:19 48.2 °F 46.4 °F 29.6 in ENE 12.4 mph 21.7 mph 91% 0.03 in 0.00 W/m2 unknown
02:24 48.2 °F 46.4 °F 29.6 in ENE 11.8 mph 21.7 mph 91% 0.03 in 0.00 W/m2 unknown
02:29 48.2 °F 46.4 °F 29.6 in NE 12.4 mph 21.1 mph 91% 0.02 in 0.00 W/m2 unknown
02:34 50 °F 46.4 °F 29.6 in ENE 12.4 mph 21.1 mph 91% 0.02 in 0.00 W/m2 unknown
02:39 50 °F 46.4 °F 29.6 in ENE 11.8 mph 14.9 mph 91% 0.02 in 0.00 W/m2 unknown
02:44 50 °F 46.4 °F 29.6 in NE 9.9 mph 14.3 mph 91% 0.02 in 0.00 W/m2 unknown
02:49 50 °F 46.4 °F 29.6 in NE 9.3 mph 14.3 mph 91% 0.02 in 0.00 W/m2 unknown
02:54 50 °F 46.4 °F 29.6 in NE 9.3 mph 14.3 mph 91% 0.01 in 0.00 W/m2 unknown
02:59 50 °F 46.4 °F 29.6 in NE 10.6 mph 14.9 mph 91% 0.01 in 0.00 W/m2 unknown
03:04 50 °F 46.4 °F 29.6 in NE 9.9 mph 14.9 mph 90% 0.01 in 0.00 W/m2 unknown
03:09 50 °F 46.4 °F 29.6 in NE 9.3 mph 14.9 mph 91% 0 in 0.00 W/m2 unknown
03:14 50 °F 46.4 °F 29.6 in NE 6.8 mph 13 mph 91% 0 in 0.00 W/m2 unknown
03:19 50 °F 46.4 °F 29.6 in NE 6.2 mph 8.7 mph 91% 0.01 in 0.00 W/m2 unknown
03:24 50 °F 46.4 °F 29.6 in NE 5.6 mph 8.7 mph 91% 0.02 in 0.00 W/m2 unknown
03:29 50 °F 46.4 °F 29.6 in NNE 6.2 mph 8.1 mph 92% 0.02 in 0.00 W/m2 unknown
03:34 50 °F 46.4 °F 29.6 in North 5 mph 6.8 mph 92% 0.02 in 0.00 W/m2 unknown
03:39 50 °F 48.2 °F 29.6 in North 5.6 mph 6.8 mph 93% 0.03 in 0.00 W/m2 unknown
03:44 50 °F 48.2 °F 29.6 in North 5.6 mph 6.8 mph 93% 0.03 in 0.00 W/m2 unknown
03:49 48.2 °F 46.4 °F 29.6 in North 5.6 mph 6.8 mph 93% 0.04 in 0.00 W/m2 unknown
03:54 48.2 °F 46.4 °F 29.6 in North 4.3 mph 6.8 mph 93% 0.04 in 0.00 W/m2 unknown
03:59 48.2 °F 46.4 °F 29.6 in North 5 mph 6.2 mph 93% 0.05 in 0.00 W/m2 unknown
04:04 48.2 °F 46.4 °F 29.6 in NNW 5 mph 6.8 mph 93% 0.05 in 0.00 W/m2 unknown
04:09 48.2 °F 46.4 °F 29.6 in North 5 mph 6.8 mph 94% 0.05 in 0.00 W/m2 unknown
04:14 48.2 °F 46.4 °F 29.6 in North 5 mph 6.8 mph 94% 0.05 in 0.00 W/m2 unknown
04:19 48.2 °F 46.4 °F 29.6 in NNW 5 mph 6.8 mph 94% 0.05 in 0.00 W/m2 unknown
04:24 48.2 °F 46.4 °F 29.6 in North 3.7 mph 6.8 mph 94% 0.05 in 0.00 W/m2 unknown
04:29 48.2 °F 46.4 °F 29.6 in North 4.3 mph 6.2 mph 94% 0.04 in 0.00 W/m2 unknown
04:34 48.2 °F 46.4 °F 29.6 in NNW 3.7 mph 6.2 mph 94% 0.04 in 0.00 W/m2 unknown
04:39 48.2 °F 46.4 °F 29.6 in NNW 3.7 mph 6.2 mph 94% 0.03 in 0.00 W/m2 unknown
04:44 48.2 °F 46.4 °F 29.6 in NNW 4.3 mph 6.2 mph 94% 0.03 in 0.00 W/m2 unknown
04:49 48.2 °F 46.4 °F 29.6 in NNW 3.1 mph 6.2 mph 94% 0.03 in 0.00 W/m2 unknown
04:54 48.2 °F 46.4 °F 29.6 in NNW 3.1 mph 5 mph 94% 0.02 in 0.00 W/m2 unknown
04:59 48.2 °F 46.4 °F 29.6 in NNW 4.3 mph 5 mph 94% 0.02 in 0.00 W/m2 unknown
05:04 48.2 °F 46.4 °F 29.6 in NNW 5 mph 6.8 mph 94% 0.02 in 0.00 W/m2 unknown
05:09 48.2 °F 46.4 °F 29.6 in NW 3.7 mph 6.8 mph 94% 0.02 in 0.00 W/m2 unknown
05:14 48.2 °F 46.4 °F 29.6 in NNW 3.7 mph 6.2 mph 94% 0.02 in 0.00 W/m2 unknown
05:19 48.2 °F 46.4 °F 29.6 in NW 3.1 mph 5 mph 94% 0.02 in 0.00 W/m2 unknown
05:24 48.2 °F 46.4 °F 29.6 in NNW 3.1 mph 5 mph 94% 0.02 in 0.00 W/m2 unknown
05:29 48.2 °F 46.4 °F 29.6 in NNW 3.1 mph 5 mph 94% 0.02 in 0.00 W/m2 unknown
05:34 48.2 °F 48.2 °F 29.6 in NNW 3.1 mph 5 mph 94% 0.02 in 0.00 W/m2 unknown
05:39 48.2 °F 48.2 °F 29.6 in NNW 3.1 mph 5 mph 94% 0.02 in 0.00 W/m2 unknown
05:44 48.2 °F 48.2 °F 29.6 in NNW 2.5 mph 5 mph 94% 0.02 in 0.00 W/m2 unknown
05:49 48.2 °F 48.2 °F 29.6 in NNW 2.5 mph 3.7 mph 94% 0.01 in 0.00 W/m2 unknown
05:54 48.2 °F 48.2 °F 29.5 in NNW 2.5 mph 3.7 mph 94% 0.01 in 0.00 W/m2 unknown
05:59 48.2 °F 48.2 °F 29.5 in NNW 2.5 mph 3.7 mph 94% 0.01 in 0.00 W/m2 unknown
06:04 50 °F 48.2 °F 29.5 in NNW 2.5 mph 3.7 mph 94% 0.01 in 0.00 W/m2 unknown
06:09 50 °F 48.2 °F 29.5 in NNW 3.1 mph 3.7 mph 94% 0.01 in 0.00 W/m2 unknown
06:14 50 °F 48.2 °F 29.5 in NNW 4.3 mph 6.8 mph 94% 0.01 in 0.00 W/m2 unknown
06:19 50 °F 48.2 °F 29.5 in NW 4.3 mph 6.8 mph 94% 0.01 in 0.00 W/m2 unknown
06:24 50 °F 48.2 °F 29.5 in NW 3.1 mph 6.8 mph 94% 0 in 0.00 W/m2 unknown
06:29 50 °F 48.2 °F 29.5 in NW 4.3 mph 6.2 mph 94% 0 in 0.00 W/m2 unknown
06:34 50 °F 48.2 °F 29.5 in NW 5 mph 6.2 mph 94% 0 in 0.00 W/m2 unknown
06:39 50 °F 48.2 °F 29.5 in WNW 5 mph 6.2 mph 94% 0 in 0.00 W/m2 unknown
06:44 50 °F 48.2 °F 29.5 in WNW 5 mph 6.2 mph 94% 0.01 in 0.00 W/m2 unknown
06:49 50 °F 48.2 °F 29.5 in WNW 5 mph 6.8 mph 94% 0.01 in 0.00 W/m2 unknown
06:54 50 °F 48.2 °F 29.5 in WNW 5.6 mph 8.7 mph 94% 0.01 in 0.00 W/m2 unknown
06:59 50 °F 48.2 °F 29.5 in WNW 6.2 mph 9.3 mph 94% 0.01 in 0.00 W/m2 unknown
07:04 50 °F 48.2 °F 29.5 in WNW 4.3 mph 8.7 mph 94% 0.01 in 0.00 W/m2 unknown
07:09 50 °F 48.2 °F 29.5 in WNW 3.7 mph 6.2 mph 94% 0.01 in 5.00 W/m2 unknown
07:14 50 °F 48.2 °F 29.5 in WNW 5 mph 8.7 mph 94% 0.01 in 5.00 W/m2 unknown
07:19 50 °F 48.2 °F 29.5 in WNW 6.2 mph 9.3 mph 94% 0.01 in 7.00 W/m2 unknown
07:24 50 °F 48.2 °F 29.5 in WNW 7.5 mph 10.6 mph 94% 0.01 in 7.00 W/m2 unknown
07:29 50 °F 48.2 °F 29.5 in WNW 8.1 mph 10.6 mph 94% 0.01 in 7.00 W/m2 unknown
07:34 50 °F 48.2 °F 29.5 in WNW 7.5 mph 10.6 mph 94% 0.02 in 12.00 W/m2 unknown
07:39 50 °F 48.2 °F 29.5 in WNW 6.2 mph 9.9 mph 94% 0.02 in 12.00 W/m2 unknown
07:44 50 °F 48.2 °F 29.5 in West 6.8 mph 8.1 mph 94% 0.02 in 18.00 W/m2 unknown
07:49 50 °F 48.2 °F 29.5 in WNW 7.5 mph 11.2 mph 94% 0.02 in 18.00 W/m2 unknown
07:54 50 °F 48.2 °F 29.5 in West 8.1 mph 11.8 mph 94% 0.02 in 16.00 W/m2 unknown
07:59 48.2 °F 48.2 °F 29.5 in WNW 6.2 mph 11.8 mph 94% 0.02 in 18.00 W/m2 unknown
08:04 48.2 °F 48.2 °F 29.5 in WNW 6.8 mph 9.3 mph 94% 0.03 in 18.00 W/m2 unknown
08:09 48.2 °F 48.2 °F 29.5 in WNW 6.8 mph 8.7 mph 94% 0.03 in 23.00 W/m2 unknown
08:14 48.2 °F 48.2 °F 29.5 in WNW 6.2 mph 8.1 mph 94% 0.03 in 23.00 W/m2 unknown
08:19 50 °F 48.2 °F 29.5 in WNW 6.8 mph 8.1 mph 94% 0.03 in 18.00 W/m2 unknown
08:24 50 °F 48.2 °F 29.5 in WNW 6.8 mph 9.3 mph 94% 0.03 in 18.00 W/m2 unknown
08:29 50 °F 48.2 °F 29.5 in WNW 6.2 mph 9.3 mph 94% 0.03 in 18.00 W/m2 unknown
08:34 50 °F 48.2 °F 29.5 in WNW 6.8 mph 8.7 mph 94% 0.04 in 16.00 W/m2 unknown
08:39 50 °F 48.2 °F 29.5 in WNW 7.5 mph 10.6 mph 94% 0.03 in 21.00 W/m2 unknown
08:44 50 °F 48.2 °F 29.5 in WNW 7.5 mph 9.9 mph 94% 0.03 in 25.00 W/m2 unknown
08:49 48.2 °F 48.2 °F 29.5 in WNW 7.5 mph 10.6 mph 94% 0.03 in 30.00 W/m2 unknown
08:54 48.2 °F 48.2 °F 29.5 in WNW 9.3 mph 11.8 mph 94% 0.02 in 39.00 W/m2 unknown
08:59 48.2 °F 48.2 °F 29.5 in WNW 9.3 mph 11.8 mph 94% 0.02 in 44.00 W/m2 unknown
09:04 50 °F 48.2 °F 29.5 in WNW 8.7 mph 11.8 mph 94% 0.02 in 47.00 W/m2 unknown
09:09 50 °F 48.2 °F 29.5 in WNW 8.7 mph 13 mph 94% 0.01 in 47.00 W/m2 unknown
09:14 50 °F 48.2 °F 29.5 in WNW 8.7 mph 13 mph 94% 0.02 in 42.00 W/m2 unknown
09:19 50 °F 48.2 °F 29.5 in WNW 7.5 mph 11.8 mph 94% 0.02 in 40.00 W/m2 unknown
09:24 50 °F 48.2 °F 29.5 in WNW 9.3 mph 11.8 mph 94% 0.02 in 40.00 W/m2 unknown
09:29 50 °F 48.2 °F 29.5 in WNW 8.7 mph 11.8 mph 94% 0.02 in 39.00 W/m2 unknown
09:34 50 °F 48.2 °F 29.5 in WNW 9.9 mph 13 mph 94% 0.02 in 37.00 W/m2 unknown
09:39 50 °F 48.2 °F 29.5 in WNW 9.3 mph 13 mph 94% 0.02 in 44.00 W/m2 unknown
09:44 50 °F 48.2 °F 29.5 in WNW 10.6 mph 13 mph 94% 0.02 in 42.00 W/m2 unknown
09:49 50 °F 48.2 °F 29.5 in WNW 8.1 mph 13 mph 94% 0.02 in 42.00 W/m2 unknown
09:54 50 °F 48.2 °F 29.5 in WNW 9.9 mph 11.8 mph 94% 0.02 in 46.00 W/m2 unknown
09:59 50 °F 48.2 °F 29.5 in WNW 9.3 mph 13 mph 94% 0.03 in 54.00 W/m2 unknown
10:04 50 °F 48.2 °F 29.5 in WNW 8.7 mph 13 mph 94% 0.03 in 54.00 W/m2 unknown
10:09 50 °F 48.2 °F 29.5 in WNW 9.3 mph 14.3 mph 94% 0.03 in 69.00 W/m2 unknown
10:14 50 °F 48.2 °F 29.5 in WNW 8.7 mph 12.4 mph 94% 0.04 in 69.00 W/m2 unknown
10:19 50 °F 48.2 °F 29.5 in WNW 6.8 mph 13 mph 94% 0.03 in 95.00 W/m2 unknown
10:24 50 °F 48.2 °F 29.5 in WNW 6.2 mph 9.3 mph 94% 0.03 in 121.00 W/m2 unknown
10:29 50 °F 48.2 °F 29.5 in WNW 11.2 mph 14.9 mph 94% 0.03 in 141.00 W/m2 unknown
10:34 50 °F 48.2 °F 29.5 in WNW 8.7 mph 14.9 mph 94% 0.03 in 156.00 W/m2 unknown
10:39 50 °F 48.2 °F 29.5 in NW 9.3 mph 13 mph 94% 0.03 in 162.00 W/m2 unknown
10:44 50 °F 48.2 °F 29.5 in WNW 6.2 mph 13 mph 93% 0.02 in 156.00 W/m2 unknown
10:49 51.8 °F 48.2 °F 29.5 in WNW 7.5 mph 10.6 mph 93% 0.02 in 153.00 W/m2 unknown
10:54 51.8 °F 48.2 °F 29.5 in WNW 7.5 mph 9.9 mph 93% 0.03 in 127.00 W/m2 unknown
10:59 51.8 °F 48.2 °F 29.5 in WNW 7.5 mph 9.3 mph 93% 0.03 in 123.00 W/m2 unknown
11:04 51.8 °F 48.2 °F 29.5 in WNW 8.1 mph 10.6 mph 93% 0.02 in 134.00 W/m2 unknown
11:09 51.8 °F 48.2 °F 29.5 in WNW 8.1 mph 10.6 mph 93% 0.02 in 137.00 W/m2 unknown
11:14 51.8 °F 50 °F 29.5 in WNW 6.8 mph 10.6 mph 93% 0.02 in 142.00 W/m2 unknown
11:19 51.8 °F 50 °F 29.5 in WNW 9.3 mph 11.8 mph 93% 0.02 in 144.00 W/m2 unknown
11:24 51.8 °F 50 °F 29.6 in WNW 8.7 mph 11.8 mph 93% 0.02 in 146.00 W/m2 unknown
11:29 51.8 °F 50 °F 29.6 in WNW 6.8 mph 11.8 mph 93% 0.02 in 156.00 W/m2 unknown
11:34 51.8 °F 50 °F 29.6 in West 6.8 mph 10.6 mph 93% 0.02 in 156.00 W/m2 unknown
11:39 51.8 °F 50 °F 29.6 in West 6.2 mph 9.9 mph 93% 0.02 in 137.00 W/m2 unknown
11:44 51.8 °F 50 °F 29.6 in WNW 9.3 mph 11.8 mph 92% 0.02 in 172.00 W/m2 unknown
11:49 51.8 °F 50 °F 29.6 in WNW 8.7 mph 11.8 mph 92% 0.02 in 193.00 W/m2 unknown
11:54 51.8 °F 50 °F 29.6 in WNW 8.1 mph 11.8 mph 92% 0.02 in 209.00 W/m2 unknown
11:59 53.6 °F 50 °F 29.6 in WNW 7.5 mph 9.9 mph 92% 0.02 in 220.00 W/m2 unknown
12:04 53.6 °F 50 °F 29.6 in WNW 6.8 mph 10.6 mph 92% 0.02 in 237.00 W/m2 unknown
12:09 53.6 °F 50 °F 29.6 in WNW 8.1 mph 10.6 mph 91% 0.02 in 237.00 W/m2 unknown
12:14 53.6 °F 50 °F 29.6 in West 6.2 mph 9.3 mph 91% 0.02 in 229.00 W/m2 unknown
12:19 53.6 °F 50 °F 29.6 in West 6.8 mph 9.3 mph 91% 0.02 in 207.00 W/m2 unknown
12:24 53.6 °F 51.8 °F 29.6 in West 5 mph 8.7 mph 91% 0.02 in 221.00 W/m2 unknown
12:29 53.6 °F 51.8 °F 29.6 in WNW 8.1 mph 10.6 mph 91% 0.02 in 221.00 W/m2 unknown
12:34 53.6 °F 50 °F 29.6 in West 6.8 mph 9.9 mph 90% 0.02 in 202.00 W/m2 unknown
12:39 53.6 °F 50 °F 29.6 in West 6.2 mph 8.7 mph 90% 0.01 in 172.00 W/m2 unknown
12:44 53.6 °F 51.8 °F 29.6 in West 6.2 mph 8.1 mph 91% 0.01 in 181.00 W/m2 unknown
12:49 53.6 °F 51.8 °F 29.6 in WNW 5 mph 8.1 mph 91% 0.01 in 179.00 W/m2 unknown
12:54 53.6 °F 51.8 °F 29.6 in West 5.6 mph 8.1 mph 91% 0.02 in 227.00 W/m2 unknown
12:59 53.6 °F 51.8 °F 29.6 in West 6.2 mph 8.1 mph 91% 0.02 in 251.00 W/m2 unknown
13:04 53.6 °F 51.8 °F 29.6 in West 6.2 mph 6.8 mph 91% 0.02 in 251.00 W/m2 unknown
13:09 55.4 °F 51.8 °F 29.6 in West 6.2 mph 6.8 mph 91% 0.02 in 269.00 W/m2 unknown
13:14 55.4 °F 51.8 °F 29.6 in West 3.1 mph 6.8 mph 91% 0.02 in 315.00 W/m2 unknown
13:19 55.4 °F 51.8 °F 29.6 in WNW 6.2 mph 8.1 mph 90% 0.01 in 316.00 W/m2 unknown
13:22 55.4 °F 51.8 °F 29.6 in West 6.2 mph 8.1 mph 89% 0.01 in 308.00 W/m2 unknown
13:29 55.4 °F 51.8 °F 29.6 in WNW 5 mph 8.1 mph 89% 0.01 in 309.00 W/m2 unknown
13:34 55.4 °F 51.8 °F 29.6 in WNW 6.2 mph 8.1 mph 89% 0.01 in 290.00 W/m2 unknown
13:39 55.4 °F 51.8 °F 29.6 in West 5.6 mph 8.1 mph 89% 0.01 in 295.00 W/m2 unknown
13:44 55.4 °F 53.6 °F 29.6 in West 5 mph 6.8 mph 90% 0.01 in 295.00 W/m2 unknown
13:49 55.4 °F 53.6 °F 29.6 in West 5.6 mph 6.8 mph 90% 0.01 in 278.00 W/m2 unknown
13:54 55.4 °F 53.6 °F 29.6 in West 5.6 mph 6.8 mph 90% 0.01 in 269.00 W/m2 unknown
13:59 55.4 °F 51.8 °F 29.6 in West 4.3 mph 6.8 mph 89% 0 in 279.00 W/m2 unknown
14:04 55.4 °F 51.8 °F 29.6 in WNW 5 mph 6.2 mph 88% 0 in 278.00 W/m2 unknown
14:09 55.4 °F 51.8 °F 29.6 in West 3.1 mph 6.2 mph 89% 0 in 272.00 W/m2 unknown
14:14 55.4 °F 51.8 °F 29.6 in WNW 2.5 mph 5 mph 88% 0 in 304.00 W/m2 unknown
14:19 57.2 °F 53.6 °F 29.6 in WNW 3.1 mph 3.7 mph 88% 0 in 315.00 W/m2 unknown
14:24 57.2 °F 51.8 °F 29.6 in WNW 3.7 mph 5 mph 87% 0 in 327.00 W/m2 unknown
14:29 57.2 °F 53.6 °F 29.6 in NW 1.2 mph 5 mph 88% 0 in 332.00 W/m2 unknown
14:34 57.2 °F 53.6 °F 29.6 in NW 2.5 mph 3.7 mph 87% 0 in 325.00 W/m2 unknown
14:39 57.2 °F 53.6 °F 29.6 in WNW 2.5 mph 3.7 mph 87% 0 in 278.00 W/m2 unknown
14:44 57.2 °F 53.6 °F 29.6 in NW 2.5 mph 4.3 mph 87% 0.01 in 265.00 W/m2 unknown
14:49 57.2 °F 51.8 °F 29.6 in North 1.9 mph 5 mph 86% 0.01 in 239.00 W/m2 unknown
14:54 57.2 °F 51.8 °F 29.6 in ENE 1.9 mph 3.7 mph 86% 0.01 in 213.00 W/m2 unknown
14:59 57.2 °F 53.6 °F 29.6 in North 2.5 mph 3.7 mph 86% 0.01 in 214.00 W/m2 unknown
15:04 57.2 °F 53.6 °F 29.6 in NNW 2.5 mph 3.7 mph 86% 0.01 in 207.00 W/m2 unknown
15:09 57.2 °F 51.8 °F 29.6 in ENE 1.2 mph 3.1 mph 85% 0.01 in 176.00 W/m2 unknown
15:14 57.2 °F 51.8 °F 29.6 in SSW 1.9 mph 3.7 mph 85% 0.01 in 192.00 W/m2 unknown
15:19 57.2 °F 51.8 °F 29.6 in South 1.2 mph 3.1 mph 84% 0.01 in 229.00 W/m2 unknown
15:24 57.2 °F 53.6 °F 29.6 in SSW 1.9 mph 2.5 mph 85% 0.01 in 250.00 W/m2 unknown
15:29 57.2 °F 51.8 °F 29.6 in SSW 1.2 mph 2.5 mph 84% 0.01 in 271.00 W/m2 unknown
15:34 57.2 °F 53.6 °F 29.6 in SW 3.1 mph 3.7 mph 85% 0.01 in 315.00 W/m2 unknown
15:39 57.2 °F 53.6 °F 29.6 in WSW 2.5 mph 3.7 mph 84% 0.01 in 345.00 W/m2 unknown
15:44 57.2 °F 53.6 °F 29.6 in WSW 3.1 mph 5 mph 83% 0.01 in 343.00 W/m2 unknown
15:49 57.2 °F 51.8 °F 29.6 in West 3.1 mph 5 mph 83% 0 in 311.00 W/m2 unknown
15:54 57.2 °F 51.8 °F 29.6 in West 1.9 mph 3.7 mph 83% 0 in 274.00 W/m2 unknown
15:59 57.2 °F 53.6 °F 29.6 in SW 3.7 mph 5 mph 83% 0 in 214.00 W/m2 unknown
16:04 57.2 °F 51.8 °F 29.6 in WSW 3.1 mph 5 mph 82% 0 in 227.00 W/m2 unknown
16:09 57.2 °F 51.8 °F 29.6 in West 1.9 mph 3.7 mph 82% 0 in 239.00 W/m2 unknown
16:14 59 °F 53.6 °F 29.6 in SW 1.2 mph 3.1 mph 83% 0 in 262.00 W/m2 unknown
16:19 59 °F 53.6 °F 29.6 in WSW 1.9 mph 3.7 mph 82% 0 in 271.00 W/m2 unknown
16:24 59 °F 53.6 °F 29.6 in SW 2.5 mph 3.7 mph 83% 0 in 264.00 W/m2 unknown
16:29 59 °F 53.6 °F 29.6 in SW 3.1 mph 3.7 mph 83% 0 in 253.00 W/m2 unknown
16:39 59 °F 53.6 °F 29.6 in SSW 3.1 mph 3.7 mph 81% 0 in 250.00 W/m2 unknown
16:44 59 °F 53.6 °F 29.6 in SSW 2.5 mph 3.7 mph 81% 0 in 246.00 W/m2 unknown
16:49 59 °F 53.6 °F 29.6 in SSW 1.2 mph 3.1 mph 81% 0 in 236.00 W/m2 unknown
16:54 59 °F 53.6 °F 29.6 in SSW 1.9 mph 3.7 mph 81% 0 in 232.00 W/m2 unknown
16:59 59 °F 53.6 °F 29.6 in SW 2.5 mph 3.7 mph 81% 0 in 225.00 W/m2 unknown
17:04 59 °F 53.6 °F 29.6 in WSW 3.7 mph 5 mph 81% 0 in 216.00 W/m2 unknown
17:09 59 °F 53.6 °F 29.6 in WSW 3.7 mph 5 mph 81% 0 in 199.00 W/m2 unknown
17:14 59 °F 51.8 °F 29.6 in West 3.1 mph 5 mph 80% 0 in 186.00 W/m2 unknown
17:19 59 °F 51.8 °F 29.6 in WSW 3.1 mph 5 mph 80% 0 in 169.00 W/m2 unknown
17:24 59 °F 53.6 °F 29.6 in WSW 3.1 mph 5 mph 81% 0 in 151.00 W/m2 unknown
17:29 59 °F 53.6 °F 29.6 in SW 3.7 mph 3.7 mph 82% 0 in 139.00 W/m2 unknown
17:34 59 °F 53.6 °F 29.6 in SW 2.5 mph 3.7 mph 82% 0 in 132.00 W/m2 unknown
17:39 59 °F 53.6 °F 29.6 in WSW 3.1 mph 5 mph 82% 0 in 128.00 W/m2 unknown
17:44 59 °F 53.6 °F 29.6 in WSW 3.7 mph 5 mph 82% 0 in 127.00 W/m2 unknown
17:49 59 °F 53.6 °F 29.6 in SW 3.7 mph 6.2 mph 82% 0 in 127.00 W/m2 unknown
17:54 59 °F 53.6 °F 29.6 in SW 3.7 mph 6.2 mph 82% 0 in 127.00 W/m2 unknown
17:59 59 °F 53.6 °F 29.6 in SW 3.7 mph 6.2 mph 83% 0 in 125.00 W/m2 unknown
18:04 59 °F 53.6 °F 29.6 in WSW 3.1 mph 5 mph 83% 0 in 123.00 W/m2 unknown
18:09 59 °F 53.6 °F 29.6 in SSW 3.1 mph 5 mph 82% 0 in 120.00 W/m2 unknown
18:14 59 °F 53.6 °F 29.6 in SW 3.7 mph 5 mph 82% 0 in 120.00 W/m2 unknown
18:19 59 °F 53.6 °F 29.6 in SW 3.1 mph 5 mph 82% 0 in 118.00 W/m2 unknown
18:24 59 °F 53.6 °F 29.6 in SW 4.3 mph 5 mph 83% 0 in 114.00 W/m2 unknown
18:29 59 °F 53.6 °F 29.6 in WSW 4.3 mph 5 mph 82% 0 in 105.00 W/m2 unknown
18:34 59 °F 53.6 °F 29.6 in SW 4.3 mph 6.2 mph 83% 0 in 100.00 W/m2 unknown
18:39 59 °F 53.6 °F 29.6 in SW 4.3 mph 6.2 mph 83% 0 in 84.00 W/m2 unknown
18:44 59 °F 53.6 °F 29.6 in SW 3.1 mph 6.2 mph 84% 0 in 77.00 W/m2 unknown
18:49 57.2 °F 53.6 °F 29.6 in SSW 5 mph 6.2 mph 84% 0 in 76.00 W/m2 unknown
18:54 57.2 °F 53.6 °F 29.6 in SW 3.7 mph 6.2 mph 84% 0 in 77.00 W/m2 unknown
18:59 57.2 °F 53.6 °F 29.6 in SSW 3.7 mph 6.2 mph 84% 0 in 74.00 W/m2 unknown
19:04 57.2 °F 53.6 °F 29.6 in SSW 4.3 mph 5 mph 84% 0 in 72.00 W/m2 unknown
19:09 57.2 °F 53.6 °F 29.6 in SSW 5 mph 6.2 mph 84% 0 in 69.00 W/m2 unknown
19:14 57.2 °F 53.6 °F 29.6 in SW 5 mph 6.2 mph 84% 0 in 62.00 W/m2 unknown
19:19 57.2 °F 53.6 °F 29.6 in SSW 4.3 mph 6.2 mph 84% 0 in 58.00 W/m2 unknown
19:24 57.2 °F 51.8 °F 29.6 in SSW 4.3 mph 6.2 mph 84% 0 in 51.00 W/m2 unknown
19:29 57.2 °F 51.8 °F 29.6 in SSW 4.3 mph 6.2 mph 84% 0 in 44.00 W/m2 unknown
19:34 57.2 °F 51.8 °F 29.6 in SSW 3.7 mph 5.6 mph 84% 0 in 37.00 W/m2 unknown
19:39 57.2 °F 51.8 °F 29.6 in SSW 3.1 mph 6.2 mph 85% 0 in 30.00 W/m2 unknown
19:44 57.2 °F 51.8 °F 29.6 in SSW 3.1 mph 3.7 mph 85% 0 in 25.00 W/m2 unknown
19:49 57.2 °F 51.8 °F 29.6 in SW 3.1 mph 5 mph 86% 0 in 21.00 W/m2 unknown
19:54 57.2 °F 51.8 °F 29.6 in SSW 3.1 mph 5 mph 86% 0 in 19.00 W/m2 unknown
19:59 57.2 °F 51.8 °F 29.6 in SW 3.1 mph 5 mph 86% 0 in 16.00 W/m2 unknown
20:04 57.2 °F 51.8 °F 29.6 in SW 2.5 mph 3.7 mph 87% 0 in 9.00 W/m2 unknown
20:09 55.4 °F 51.8 °F 29.6 in SW 3.1 mph 3.7 mph 87% 0 in 5.00 W/m2 unknown
20:14 55.4 °F 51.8 °F 29.6 in SW 1.9 mph 3.7 mph 87% 0 in 0.00 W/m2 unknown
20:19 55.4 °F 51.8 °F 29.6 in SW 2.5 mph 3.7 mph 87% 0 in 0.00 W/m2 unknown
20:24 55.4 °F 51.8 °F 29.6 in SW 2.5 mph 3.7 mph 87% 0 in 0.00 W/m2 unknown
20:29 55.4 °F 51.8 °F 29.6 in SW 1.9 mph 3.7 mph 87% 0 in 0.00 W/m2 unknown
20:34 55.4 °F 51.8 °F 29.6 in SW 3.1 mph 3.7 mph 87% 0 in 0.00 W/m2 unknown
20:39 55.4 °F 51.8 °F 29.6 in SSW 2.5 mph 3.7 mph 87% 0 in 0.00 W/m2 unknown
20:44 55.4 °F 51.8 °F 29.6 in SSW 1.9 mph 3.7 mph 88% 0 in 0.00 W/m2 unknown
20:49 55.4 °F 51.8 °F 29.6 in SSW 1.9 mph 3.7 mph 88% 0 in 0.00 W/m2 unknown
20:54 55.4 °F 51.8 °F 29.6 in SSW 1.2 mph 3.1 mph 89% 0 in 0.00 W/m2 unknown
20:59 55.4 °F 51.8 °F 29.6 in Calm   1.9 mph 90% 0 in 0.00 W/m2 unknown
21:04 55.4 °F 51.8 °F 29.6 in Calm     90% 0 in 0.00 W/m2 unknown
21:09 53.6 °F 51.8 °F 29.6 in Calm     91% 0 in 0.00 W/m2 unknown
21:14 53.6 °F 51.8 °F 29.6 in Calm     91% 0 in 0.00 W/m2 unknown
21:19 53.6 °F 51.8 °F 29.7 in Calm     91% 0 in 0.00 W/m2 unknown
21:24 53.6 °F 51.8 °F 29.7 in Calm     91% 0 in 0.00 W/m2 unknown
21:29 53.6 °F 51.8 °F 29.7 in Calm     91% 0 in 0.00 W/m2 unknown
21:34 53.6 °F 51.8 °F 29.7 in Calm     92% 0 in 0.00 W/m2 unknown
21:39 53.6 °F 51.8 °F 29.7 in Calm     92% 0 in 0.00 W/m2 unknown
21:44 53.6 °F 51.8 °F 29.7 in Calm     92% 0 in 0.00 W/m2 unknown
21:49 53.6 °F 51.8 °F 29.7 in Calm     92% 0 in 0.00 W/m2 unknown
21:54 53.6 °F 51.8 °F 29.7 in Calm     92% 0 in 0.00 W/m2 unknown
21:59 53.6 °F 51.8 °F 29.7 in Calm     92% 0 in 0.00 W/m2 unknown
22:04 53.6 °F 51.8 °F 29.7 in Calm     93% 0 in 0.00 W/m2 unknown
22:09 53.6 °F 51.8 °F 29.7 in Calm     93% 0 in 0.00 W/m2 unknown
22:14 53.6 °F 50 °F 29.7 in Calm     93% 0 in 0.00 W/m2 unknown
22:19 51.8 °F 50 °F 29.7 in Calm     93% 0 in 0.00 W/m2 unknown
22:24 51.8 °F 50 °F 29.7 in Calm     93% 0 in 0.00 W/m2 unknown
22:29 51.8 °F 50 °F 29.7 in Calm     94% 0 in 0.00 W/m2 unknown
22:34 51.8 °F 50 °F 29.7 in Calm     94% 0 in 0.00 W/m2 unknown
22:39 51.8 °F 50 °F 29.7 in Calm     94% 0 in 0.00 W/m2 unknown
22:44 51.8 °F 50 °F 29.7 in SSE 1.9 mph 2.5 mph 94% 0 in 0.00 W/m2 unknown
22:49 51.8 °F 50 °F 29.7 in SSE 1.9 mph 3.7 mph 94% 0 in 0.00 W/m2 unknown
22:54 51.8 °F 50 °F 29.7 in SE 1.9 mph 3.1 mph 94% 0 in 0.00 W/m2 unknown
22:59 51.8 °F 50 °F 29.7 in SE 1.9 mph 2.5 mph 94% 0 in 0.00 W/m2 unknown
23:04 51.8 °F 50 °F 29.7 in SE 2.5 mph 3.7 mph 94% 0 in 0.00 W/m2 unknown
23:09 51.8 °F 50 °F 29.7 in ESE 3.1 mph 3.7 mph 94% 0 in 0.00 W/m2 unknown
23:14 51.8 °F 50 °F 29.7 in ESE 3.1 mph 3.7 mph 94% 0 in 0.00 W/m2 unknown
23:19 51.8 °F 50 °F 29.7 in ESE 3.1 mph 3.7 mph 95% 0 in 0.00 W/m2 unknown
23:24 51.8 °F 50 °F 29.7 in ESE 2.5 mph 3.7 mph 95% 0 in 0.00 W/m2 unknown
23:29 51.8 °F 51.8 °F 29.7 in ESE 1.2 mph 3.1 mph 95% 0 in 0.00 W/m2 unknown
23:34 51.8 °F 51.8 °F 29.7 in Calm   1.2 mph 95% 0 in 0.00 W/m2 unknown
23:39 51.8 °F 51.8 °F 29.7 in Calm     95% 0 in 0.00 W/m2 unknown
23:44 51.8 °F 51.8 °F 29.7 in Calm     95% 0 in 0.00 W/m2 unknown
23:49 53.6 °F 51.8 °F 29.7 in ESE 0.6 mph 1.2 mph 94% 0 in 0.00 W/m2 unknown
23:54 53.6 °F 51.8 °F 29.7 in ESE 1.9 mph 2.5 mph 94% 0 in 0.00 W/m2 unknown
23:59 53.6 °F 51.8 °F 29.7 in ESE 1.9 mph 3.7 mph 94% 0 in 0.00 W/m2 unknown
Stazione Meteorologica MeteoMincio Rivalta s/M (MN)
Con i complimenti di Weather Underground - 4 mb



GLOSSARIO METEOROLOGICO
Humidex
è un indice di calore introdotto originariamente in Canada, ove è, ancora oggi largamente impiegato. è utilizzato per descrivere il disagio fisiologico che può verificarsi nelle giornate umide e calde. Tale indice è sensibile in un intervallo di temperatura compreso tra 20°C e 55°C. Al di fuori di tale intervallo, anche al variare dell'umidità relativa, l'indice individua sempre le classi estreme.
Share

Non seguire questo link o sarai bannato dal sito!